Location: Tabor
(49.4170°N, 14.6670°E)
Time: 09:48:27
(UTC+02:00)

ISS - Pass Details

Date: 19 May 2021
Orbit: 417 x 422 km, 51.6° (Epoch: 13 June)

Event Time Altitude Azimuth Distance (km) Brightness Sun altitude
Rises 23:42:44 0° 280° (W) 2,366 0.5 -18.6°
Reaches altitude 10° 23:44:51 10° 285° (WNW) 1,503 -0.5 -18.7°
Maximum altitude 23:48:11 58° 6° (N) 493 -3.2 -18.9°
Enters shadow 23:50:21 20° 81° (E) 1,044 -1.9 -19.0°
